Total_Precipitation_Accumulation
1.44 1.35 2.12 3.16 3.54 2.69 2.31 2.02 1.59 1.43 1.19 0.97 0.78 0.79 1.03 1.34 1.50 1.73 1.78 1.89 1.24 1.12 1.33 1.76 2.22 2.06 1.83 1.70 1.62 1.47 1.26 0.97 0.82 0.77 0.77 0.68 0.60 0.60 0.58 0.58 0.52 0.53 0.53 0.52 0.60 0.70 0.69 0.72 0.79
1.07 1.66 2.70 3.64 3.14 2.35 2.33 2.02 1.71 1.41 1.07 0.79 0.63 0.63 0.67 0.61 0.53 0.96 1.93 2.15 1.29 1.06 1.22 1.41 2.00 1.94 1.81 1.71 1.55 1.55 1.30 0.97 0.84 0.79 0.74 0.65 0.59 0.63 0.68 0.67 0.58 0.55 0.55 0.52 0.55 0.66 0.64 0.65 0.73
1.51 2.38 3.30 3.41 2.47 2.22 2.31 2.03 1.68 1.09 0.79 0.71 0.63 0.55 0.59 0.73 0.79 1.30 1.96 1.63 1.18 1.04 1.20 1.70 2.08 1.79 1.65 1.52 1.47 1.53 1.35 1.12 0.97 0.84 0.74 0.68 0.63 0.64 0.71 0.65 0.63 0.62 0.60 0.61 0.63 0.67 0.65 0.60 0.61
1.96 2.89 3.25 2.88 2.25 1.90 1.82 1.79 1.48 1.06 0.83 0.58 0.54 0.57 0.59 0.87 0.98 1.30 1.45 1.15 1.01 1.05 1.20 1.56 1.79 1.63 1.52 1.45 1.38 1.35 1.36 1.33 1.11 0.92 0.85 0.82 0.75 0.74 0.77 0.77 0.69 0.70 0.70 0.73 0.70 0.66 0.67 0.65 0.66
2.39 2.97 2.94 2.70 2.29 1.91 1.57 1.47 1.36 1.16 0.94 0.66 0.66 0.73 0.94 1.39 1.32 1.28 1.23 1.00 0.88 0.90 1.03 1.28 1.55 1.46 1.38 1.35 1.32 1.24 1.29 1.36 1.22 0.95 0.94 0.95 0.87 0.84 0.85 0.86 0.75 0.76 0.76 0.77 0.78 0.71 0.70 0.69 0.71
2.80 2.77 2.78 2.69 2.49 2.12 1.73 1.35 1.22 1.12 0.85 0.69 0.75 0.82 1.26 1.66 1.60 1.55 1.31 1.26 1.07 0.95 0.92 1.04 1.33 1.38 1.27 1.29 1.35 1.20 1.17 1.25 1.18 1.03 0.97 0.89 0.88 0.91 0.91 0.86 0.81 0.79 0.82 0.83 0.84 0.83 0.76 0.72 0.75
2.65 2.55 2.55 2.19 2.27 2.49 1.88 1.20 1.24 1.16 1.03 0.84 0.66 0.81 1.24 1.48 1.36 1.34 1.26 1.29 1.34 1.29 1.16 0.99 1.00 1.12 1.15 1.20 1.30 1.23 1.16 1.15 1.08 1.10 1.05 0.99 0.96 0.90 0.84 0.84 0.85 0.84 0.86 0.87 0.84 0.80 0.78 0.79 0.83
2.19 2.20 2.15 2.13 2.29 2.39 1.66 1.04 0.96 1.07 1.02 0.70 0.71 0.88 1.11 1.09 0.97 1.03 1.21 1.41 1.39 1.34 1.22 1.04 0.95 0.94 1.02 0.96 1.07 1.26 1.29 1.20 1.08 1.05 1.05 1.04 0.99 0.88 0.82 0.76 0.80 0.87 0.90 0.95 0.93 0.86 0.86 0.88 0.85
1.83 2.19 2.39 2.50 2.40 2.03 1.33 1.05 0.87 0.81 0.79 0.70 0.66 0.71 0.77 0.67 0.73 0.92 0.99 1.05 1.15 1.11 1.05 0.98 0.95 0.95 1.03 1.07 1.04 1.25 1.32 1.21 1.02 0.91 0.95 0.97 0.82 0.83 0.84 0.75 0.90 0.93 1.00 1.04 1.03 0.99 0.97 0.92 0.89
1.87 2.17 2.24 1.86 1.48 1.35 1.15 1.03 0.96 0.98 1.01 0.82 0.71 0.71 0.73 0.68 0.70 0.80 0.85 0.88 0.89 0.87 0.80 0.76 0.76 0.82 0.92 1.01 1.36 1.56 1.34 1.22 0.95 0.94 0.84 0.89 0.96 1.03 0.86 0.82 1.02 1.07 1.13 1.10 1.10 1.13 1.02 0.86 0.73
1.55 1.86 1.58 1.37 1.12 0.92 0.94 0.96 0.80 0.91 1.05 0.87 0.78 0.72 0.76 0.78 0.75 0.79 0.79 0.72 0.71 0.66 0.58 0.54 0.51 0.53 0.61 0.81 1.15 1.44 1.55 1.52 1.43 1.19 0.96 0.97 0.85 0.74 0.68 0.70 0.82 0.93 1.03 1.01 1.02 1.04 0.87 0.78 0.74
1.51 1.44 1.26 1.25 0.94 0.90 0.90 0.85 0.80 0.80 0.87 0.78 0.83 0.74 0.69 0.74 0.76 0.73 0.72 0.66 0.64 0.62 0.57 0.50 0.47 0.43 0.44 0.53 0.71 0.91 1.05 1.14 1.16 1.01 0.91 0.98 0.87 0.76 0.77 0.76 0.77 0.79 0.90 1.04 1.06 1.02 0.88 0.77 0.68
1.58 1.52 1.21 0.99 0.89 0.83 0.77 0.74 0.74 0.79 0.74 0.67 0.77 0.81 0.80 0.79 0.76 0.72 0.66 0.64 0.66 0.71 0.72 0.62 0.50 0.46 0.44 0.48 0.56 0.64 0.79 0.87 0.90 0.93 0.88 0.91 0.92 0.89 0.86 0.78 0.79 0.74 0.84 0.97 1.06 1.01 0.90 0.87 0.80
1.40 1.38 1.37 1.19 0.98 0.87 0.86 0.74 0.63 0.74 0.76 0.73 0.80 0.86 0.85 0.88 0.77 0.71 0.68 0.67 0.68 0.74 0.73 0.71 0.60 0.56 0.51 0.48 0.52 0.55 0.65 0.74 0.78 0.76 0.76 0.86 0.95 0.94 0.91 0.86 0.88 0.86 0.90 1.03 1.03 0.93 0.98 1.00 0.92
1.27 1.49 1.43 1.26 1.04 0.94 0.93 1.00 0.72 0.63 0.74 0.79 0.86 0.80 0.78 0.81 0.75 0.71 0.69 0.66 0.68 0.72 0.68 0.66 0.66 0.65 0.64 0.61 0.59 0.57 0.64 0.74 0.76 0.73 0.68 0.70 0.79 0.84 0.87 0.88 0.89 0.94 1.03 1.09 1.12 0.95 0.98 0.96 0.88
1.57 1.84 1.86 1.35 1.16 1.00 1.10 1.22 0.79 0.69 0.72 0.69 0.70 0.66 0.66 0.68 0.66 0.66 0.66 0.61 0.61 0.58 0.55 0.58 0.59 0.63 0.69 0.71 0.72 0.73 0.73 0.80 0.77 0.76 0.69 0.64 0.69 0.77 0.90 0.92 0.91 0.94 1.07 1.17 1.22 1.13 1.10 1.04 0.99
1.72 1.73 1.59 1.32 1.08 0.98 0.98 0.94 0.73 0.70 0.71 0.59 0.58 0.55 0.55 0.53 0.50 0.50 0.52 0.54 0.52 0.48 0.47 0.50 0.53 0.54 0.65 0.73 0.76 0.84 0.86 0.87 0.85 0.84 0.74 0.71 0.77 0.84 1.01 1.13 1.15 1.14 1.16 1.16 1.12 1.18 1.19 1.17 1.17
1.41 1.31 1.19 1.11 0.93 0.86 0.82 0.70 0.60 0.60 0.59 0.52 0.47 0.43 0.45 0.45 0.40 0.39 0.40 0.39 0.39 0.40 0.41 0.44 0.48 0.50 0.57 0.70 0.82 0.97 1.09 1.05 1.07 1.01 0.89 0.91 1.05 1.19 1.33 1.35 1.43 1.49 1.38 1.36 1.31 1.33 1.27 1.20 1.25
0.95 1.01 1.02 0.93 0.72 0.72 0.67 0.55 0.52 0.53 0.53 0.50 0.45 0.38 0.36 0.34 0.30 0.30 0.32 0.32 0.30 0.29 0.32 0.37 0.40 0.47 0.54 0.61 0.75 0.97 1.24 1.35 1.44 1.40 1.22 1.16 1.28 1.52 1.74 1.71 1.77 1.81 1.70 1.68 1.71 1.92 1.87 1.59 1.35
0.90 1.05 1.03 0.92 0.66 0.59 0.57 0.47 0.42 0.44 0.48 0.42 0.40 0.38 0.30 0.27 0.20 0.19 0.21 0.22 0.22 0.21 0.23 0.28 0.35 0.45 0.52 0.60 0.78 0.94 1.08 1.08 1.26 1.41 1.39 1.30 1.29 1.44 1.58 1.84 1.95 1.89 1.93 2.07 2.08 2.43 2.58 2.12 1.68
0.85 0.86 0.87 0.86 0.68 0.56 0.52 0.51 0.38 0.35 0.39 0.35 0.32 0.32 0.28 0.25 0.21 0.18 0.17 0.16 0.16 0.16 0.17 0.21 0.28 0.39 0.51 0.65 0.88 1.09 1.28 1.36 1.42 1.35 1.43 1.44 1.37 1.41 1.51 1.67 1.83 1.85 1.93 2.03 2.17 2.51 3.00 2.77 2.20
0.77 0.53 0.50 0.57 0.72 0.73 0.60 0.69 0.44 0.37 0.42 0.39 0.33 0.28 0.27 0.23 0.19 0.20 0.19 0.20 0.18 0.17 0.16 0.20 0.28 0.42 0.62 0.83 1.07 1.31 1.52 1.56 1.44 1.48 1.51 1.40 1.34 1.31 1.37 1.52 1.66 1.79 1.81 1.95 2.05 2.17 2.68 3.04 2.72
0.51 0.41 0.39 0.47 0.61 0.58 0.45 0.55 0.45 0.39 0.49 0.46 0.39 0.33 0.27 0.22 0.20 0.20 0.21 0.24 0.24 0.24 0.24 0.32 0.51 0.75 1.00 1.21 1.46 1.73 1.72 1.61 1.51 1.51 1.48 1.43 1.44 1.40 1.40 1.54 1.62 1.64 1.69 1.80 2.13 2.39 2.65 2.86 2.83
0.35 0.39 0.44 0.49 0.61 0.62 0.40 0.46 0.50 0.39 0.42 0.45 0.42 0.36 0.28 0.23 0.26 0.33 0.38 0.44 0.49 0.53 0.66 0.86 1.13 1.32 1.41 1.53 1.68 1.79 1.74 1.75 1.68 1.50 1.40 1.40 1.45 1.51 1.54 1.60 1.61 1.59 1.62 1.73 1.95 2.24 2.45 2.76 2.94
0.30 0.49 0.74 0.79 0.81 0.61 0.34 0.50 0.56 0.39 0.33 0.33 0.34 0.30 0.25 0.28 0.37 0.49 0.64 0.76 0.88 1.01 1.15 1.29 1.47 1.62 1.58 1.55 1.60 1.64 1.63 1.60 1.58 1.52 1.42 1.37 1.39 1.41 1.44 1.54 1.67 1.75 1.77 1.89 2.06 2.20 2.11 2.32 2.70
0.28 0.43 0.81 0.95 0.79 0.58 0.45 0.66 0.61 0.45 0.33 0.25 0.19 0.20 0.29 0.42 0.55 0.66 0.74 0.85 1.02 1.16 1.22 1.24 1.34 1.45 1.43 1.41 1.38 1.35 1.42 1.43 1.37 1.29 1.27 1.31 1.38 1.36 1.30 1.35 1.45 1.59 1.76 1.81 1.86 1.87 1.85 1.97 2.22
0.26 0.30 0.37 0.60 0.50 0.50 0.57 0.74 0.62 0.40 0.34 0.28 0.24 0.28 0.43 0.63 0.83 0.98 1.08 1.20 1.24 1.28 1.34 1.26 1.26 1.32 1.33 1.28 1.19 1.17 1.22 1.28 1.28 1.22 1.22 1.20 1.20 1.12 1.04 1.05 1.09 1.17 1.27 1.35 1.50 1.59 1.71 1.74 1.87
0.23 0.32 0.42 0.68 0.80 0.82 0.78 0.80 0.66 0.50 0.45 0.48 0.55 0.65 0.71 0.81 1.08 1.37 1.61 1.79 1.62 1.35 1.25 1.21 1.14 1.15 1.25 1.24 1.16 1.10 1.17 1.17 1.16 1.18 1.15 1.13 1.12 1.04 0.96 0.93 0.88 0.85 0.84 0.90 1.08 1.27 1.40 1.49 1.65
0.23 0.37 0.48 0.65 0.77 1.02 1.21 1.17 0.89 0.89 0.90 0.97 1.07 1.12 1.13 1.23 1.22 1.37 1.57 1.75 1.66 1.35 1.12 1.14 1.16 1.14 1.13 1.12 1.13 1.12 1.08 0.97 0.96 1.01 0.99 0.97 0.97 1.01 1.00 0.92 0.86 0.92 0.92 0.90 0.96 1.02 1.08 1.15 1.30
0.33 0.45 0.61 0.90 0.84 0.85 1.12 1.22 0.98 0.96 0.98 1.06 1.24 1.32 1.31 1.22 1.13 1.11 1.16 1.23 1.26 1.12 0.93 0.90 1.05 1.12 1.08 1.04 1.06 1.05 0.95 0.88 0.85 0.83 0.79 0.70 0.67 0.69 0.78 0.87 0.82 0.80 0.83 0.86 0.93 0.95 0.99 1.02 1.11